Location: Newark
(41.9364°N, 2.8061°E)
Time: 23:24:17
(UTC+00:00)

A-11 Canister half - Pass Details

Date: 19 February 2020
Orbit: 1517 x 1683 km, 47.2° (Epoch: 01 April)

Event Time Altitude Azimuth Distance (km) Brightness Sun altitude
Rises 21:03:42 0° 291° (WNW) 4,824 12.5 -40.4°
Reaches altitude 10° 21:06:52 10° 293° (WNW) 3,815 11.7 -41.0°
Enters shadow 21:14:39 62° 310° (NW) 1,734 9.2 -42.3°
